TimePDT,TemperatureF,Dew PointF,Humidity,Sea Level PressureIn,VisibilityMPH,Wind Direction,Wind SpeedMPH,Gust SpeedMPH,PrecipitationIn,Events,Conditions,WindDirDegrees,DateUTC
12:53 AM,46.9,33.1,59,29.59,10.0,South,19.6,27.6,N/A,,Clear,190,2012-10-23 07:53:00
1:53 AM,45.0,33.1,63,29.59,10.0,SSW,21.9,28.8,N/A,,Partly Cloudy,200,2012-10-23 08:53:00
2:53 AM,43.0,32.0,65,29.62,10.0,SSW,12.7,-,N/A,,Clear,200,2012-10-23 09:53:00
3:53 AM,42.1,30.9,65,29.64,10.0,SSW,13.8,20.7,N/A,,Clear,200,2012-10-23 10:53:00
4:53 AM,39.9,30.9,70,29.68,10.0,SSW,9.2,-,N/A,,Clear,200,2012-10-23 11:53:00
5:53 AM,37.0,30.0,76,29.73,10.0,SSE,9.2,-,N/A,,Unknown,160,2012-10-23 12:53:00
6:53 AM,36.0,30.0,79,29.74,10.0,South,6.9,-,N/A,,Clear,180,2012-10-23 13:53:00
7:53 AM,39.9,30.9,70,29.75,10.0,South,8.1,-,N/A,,Mostly Cloudy,180,2012-10-23 14:53:00
8:53 AM,43.0,30.9,62,29.75,10.0,South,8.1,-,N/A,,Overcast,180,2012-10-23 15:53:00
9:53 AM,45.0,30.9,58,29.76,10.0,SSE,10.4,-,N/A,,Overcast,160,2012-10-23 16:53:00
10:53 AM,48.0,27.0,44,29.74,10.0,SW,11.5,-,N/A,,Overcast,230,2012-10-23 17:53:00
11:53 AM,50.0,26.1,39,29.73,10.0,SW,15.0,23.0,N/A,,Partly Cloudy,220,2012-10-23 18:53:00
12:53 PM,48.9,24.1,38,29.72,10.0,South,9.2,-,N/A,,Overcast,190,2012-10-23 19:53:00
1:53 PM,50.0,23.0,35,29.71,10.0,West,8.1,20.7,N/A,,Overcast,260,2012-10-23 20:53:00
2:53 PM,48.9,24.1,38,29.72,10.0,NNW,5.8,-,N/A,,Overcast,340,2012-10-23 21:53:00
3:53 PM,48.9,24.1,38,29.73,10.0,North,8.1,-,N/A,,Mostly Cloudy,10,2012-10-23 22:53:00
4:53 PM,46.0,26.1,46,29.76,10.0,North,9.2,-,N/A,,Overcast,10,2012-10-23 23:53:00
5:53 PM,44.1,28.9,55,29.79,10.0,West,5.8,-,N/A,,Overcast,280,2012-10-24 00:53:00
6:53 PM,42.1,28.0,58,29.83,10.0,West,5.8,-,N/A,,Overcast,270,2012-10-24 01:53:00
7:53 PM,39.9,27.0,60,29.81,10.0,North,11.5,-,N/A,,Overcast,350,2012-10-24 02:53:00
8:53 PM,37.9,26.1,62,29.83,10.0,North,17.3,-,N/A,,Overcast,10,2012-10-24 03:53:00
9:53 PM,32.0,30.9,96,29.86,3.0,North,15.0,23.0,0.00,Snow,Light Snow,10,2012-10-24 04:53:00
10:53 PM,32.0,30.2,93,29.94,9.0,North,15.0,-,N/A,Snow,Light Snow,10,2012-10-24 05:53:00
11:20 PM,32.0,30.2,93,29.94,9.0,North,13.8,-,0.00,Snow,Light Snow,360,2012-10-24 06:20:00
11:50 PM,32.0,30.2,93,29.94,10.0,North,10.4,-,0.00,,Overcast,350,2012-10-24 06:50:00
11:53 PM,32.0,30.9,96,29.85,10.0,North,11.5,-,0.00,,Overcast,360,2012-10-24 06:53:00